TimeCDT,TemperatureF,Dew PointF,Humidity,Sea Level PressureIn,VisibilityMPH,Wind Direction,Wind SpeedMPH,Gust SpeedMPH,PrecipitationIn,Events,Conditions,WindDirDegrees,DateUTC
12:15 AM,65.1,39.9,40,29.85,10.0,East,9.2,-,N/A,,Clear,90,2013-05-16 05:15:00
12:35 AM,64.0,43.3,47,29.85,10.0,East,9.2,-,N/A,,Clear,90,2013-05-16 05:35:00
12:55 AM,64.0,46.4,53,29.85,10.0,East,9.2,-,N/A,,Clear,80,2013-05-16 05:55:00
1:15 AM,62.4,46.8,57,29.86,10.0,ENE,8.1,-,N/A,,Clear,60,2013-05-16 06:15:00
1:35 AM,62.4,49.1,62,29.85,10.0,East,9.2,-,N/A,,Clear,100,2013-05-16 06:35:00
1:55 AM,61.9,49.6,64,29.85,10.0,East,9.2,-,N/A,,Clear,100,2013-05-16 06:55:00
2:15 AM,61.9,50.9,67,29.85,10.0,ESE,10.4,-,N/A,,Clear,110,2013-05-16 07:15:00
2:35 AM,60.8,52.2,73,29.85,10.0,ESE,10.4,-,N/A,,Clear,110,2013-05-16 07:35:00
2:55 AM,60.1,52.9,77,29.85,10.0,ESE,8.1,-,N/A,,Clear,110,2013-05-16 07:55:00
3:15 AM,59.0,52.7,80,29.86,10.0,East,6.9,-,N/A,,Clear,90,2013-05-16 08:15:00
3:35 AM,58.1,52.5,82,29.87,10.0,Calm,Calm,-,N/A,,Clear,0,2013-05-16 08:35:00
3:55 AM,58.3,53.2,83,29.86,10.0,Calm,Calm,-,N/A,,Clear,0,2013-05-16 08:55:00
4:15 AM,57.0,52.7,85,29.86,10.0,Calm,Calm,-,N/A,,Clear,0,2013-05-16 09:15:00
4:35 AM,57.4,52.5,84,29.87,10.0,Calm,Calm,-,N/A,,Clear,0,2013-05-16 09:35:00
4:55 AM,55.4,50.2,83,29.89,10.0,NW,8.1,-,N/A,,Clear,310,2013-05-16 09:55:00
5:15 AM,54.5,49.5,83,29.90,10.0,NW,6.9,-,N/A,,Clear,310,2013-05-16 10:15:00
5:35 AM,53.6,48.4,82,29.89,10.0,WNW,3.5,-,N/A,,Clear,300,2013-05-16 10:35:00
5:55 AM,52.2,47.5,84,29.89,10.0,North,3.5,-,N/A,,Clear,350,2013-05-16 10:55:00
6:15 AM,51.1,46.6,85,29.90,10.0,North,5.8,-,N/A,,Clear,350,2013-05-16 11:15:00
6:35 AM,50.9,46.0,83,29.90,10.0,Calm,Calm,-,N/A,,Scattered Clouds,0,2013-05-16 11:35:00
6:55 AM,51.3,46.2,83,29.91,10.0,Calm,Calm,-,N/A,,Overcast,0,2013-05-16 11:55:00
7:15 AM,52.2,47.8,85,29.91,10.0,East,3.5,-,N/A,,Overcast,90,2013-05-16 12:15:00
7:35 AM,57.2,53.2,87,29.93,7.0,Calm,Calm,-,N/A,,Overcast,0,2013-05-16 12:35:00
7:55 AM,58.5,55.0,88,29.93,7.0,SE,4.6,-,N/A,,Overcast,140,2013-05-16 12:55:00
8:15 AM,59.4,55.6,87,29.93,7.0,Calm,Calm,-,N/A,,Overcast,0,2013-05-16 13:15:00
8:35 AM,59.7,55.4,86,29.93,10.0,Calm,Calm,-,N/A,,Mostly Cloudy,0,2013-05-16 13:35:00
8:55 AM,61.0,55.6,82,29.93,10.0,Calm,Calm,-,N/A,,Scattered Clouds,0,2013-05-16 13:55:00
9:15 AM,61.9,55.6,80,29.93,10.0,Calm,Calm,-,N/A,,Clear,0,2013-05-16 14:15:00
9:35 AM,64.2,55.6,73,29.93,10.0,ESE,3.5,-,N/A,,Clear,120,2013-05-16 14:35:00
9:55 AM,66.4,55.6,68,29.93,10.0,Calm,Calm,-,N/A,,Clear,0,2013-05-16 14:55:00
10:15 AM,69.4,55.0,60,29.93,10.0,SSE,4.6,-,N/A,,Clear,160,2013-05-16 15:15:00
10:35 AM,72.3,54.1,53,29.93,10.0,SSE,4.6,-,N/A,,Clear,160,2013-05-16 15:35:00
10:55 AM,73.8,51.1,45,29.93,10.0,Calm,Calm,-,N/A,,Clear,0,2013-05-16 15:55:00
11:15 AM,76.3,50.0,40,29.93,10.0,ESE,4.6,-,N/A,,Clear,110,2013-05-16 16:15:00
11:35 AM,77.9,49.6,37,29.93,10.0,South,3.5,-,N/A,,Clear,170,2013-05-16 16:35:00
11:55 AM,79.9,48.4,33,29.93,10.0,Calm,Calm,-,N/A,,Clear,0,2013-05-16 16:55:00
12:15 PM,80.2,44.8,29,29.93,10.0,South,3.5,-,N/A,,Clear,180,2013-05-16 17:15:00
12:35 PM,81.7,45.1,28,29.91,10.0,SSE,4.6,-,N/A,,Clear,150,2013-05-16 17:35:00
12:55 PM,83.8,44.2,25,29.91,10.0,SSE,4.6,-,N/A,,Clear,160,2013-05-16 17:55:00
1:15 PM,84.9,42.1,22,29.90,10.0,WNW,8.1,-,N/A,,Clear,290,2013-05-16 18:15:00
1:35 PM,85.5,41.2,21,29.89,10.0,NNW,4.6,-,N/A,,Clear,340,2013-05-16 18:35:00
1:55 PM,87.4,41.0,20,29.88,10.0,NW,5.8,-,N/A,,Clear,310,2013-05-16 18:55:00
2:15 PM,87.4,37.6,17,29.87,10.0,Calm,Calm,-,N/A,,Clear,0,2013-05-16 19:15:00
2:35 PM,88.9,39.4,18,29.87,10.0,Calm,Calm,-,N/A,,Clear,0,2013-05-16 19:35:00
2:55 PM,88.9,38.5,17,29.86,10.0,SSE,8.1,-,N/A,,Clear,150,2013-05-16 19:55:00
3:15 PM,89.8,38.1,16,29.85,10.0,South,8.1,-,N/A,,Clear,180,2013-05-16 20:15:00
3:35 PM,90.3,36.3,15,29.84,10.0,South,8.1,-,N/A,,Clear,190,2013-05-16 20:35:00
3:55 PM,91.0,36.1,14,29.83,10.0,West,6.9,-,N/A,,Clear,270,2013-05-16 20:55:00
4:15 PM,91.9,36.5,14,29.82,10.0,SSE,12.7,20.7,N/A,,Clear,160,2013-05-16 21:15:00
4:35 PM,93.0,36.5,14,29.80,10.0,SSE,11.5,19.6,N/A,,Clear,150,2013-05-16 21:35:00
5:15 PM,92.7,28.4,10,29.78,10.0,WNW,5.8,-,N/A,,Clear,290,2013-05-16 22:15:00
5:35 PM,93.9,31.5,11,29.78,10.0,North,-9999.0,-,N/A,,Clear,0,2013-05-16 22:35:00
5:55 PM,93.4,28.8,10,29.78,10.0,South,6.9,-,N/A,,Clear,180,2013-05-16 22:55:00
6:15 PM,94.6,14.5,5,29.78,10.0,North,-9999.0,-,N/A,,Clear,0,2013-05-16 23:15:00
6:35 PM,94.1,14.9,5,29.77,10.0,West,5.8,-,N/A,,Clear,270,2013-05-16 23:35:00
6:55 PM,93.9,16.0,6,29.77,10.0,North,-9999.0,-,N/A,,Clear,0,2013-05-16 23:55:00
7:15 PM,93.4,16.2,6,29.77,10.0,West,16.1,20.7,N/A,,Clear,270,2013-05-17 00:15:00
7:35 PM,92.5,14.2,6,29.77,10.0,WSW,11.5,-,N/A,,Clear,240,2013-05-17 00:35:00
7:55 PM,90.9,20.3,8,29.77,10.0,West,10.4,-,N/A,,Clear,270,2013-05-17 00:55:00
8:15 PM,87.4,19.2,8,29.77,10.0,West,8.1,-,N/A,,Clear,260,2013-05-17 01:15:00
8:35 PM,84.6,20.3,9,29.77,2.5,WSW,6.9,-,N/A,,Haze,250,2013-05-17 01:35:00
8:55 PM,82.6,21.4,10,29.78,3.0,WSW,6.9,-,N/A,,Haze,250,2013-05-17 01:55:00
9:15 PM,79.2,21.6,12,29.79,1.8,WSW,5.8,-,N/A,,Haze,240,2013-05-17 02:15:00
9:35 PM,76.6,21.6,13,29.80,1.8,SSW,4.6,-,N/A,,Haze,200,2013-05-17 02:35:00
9:55 PM,71.4,27.1,19,29.81,7.0,ESE,11.5,17.3,N/A,,Clear,120,2013-05-17 02:55:00
10:15 PM,76.1,47.7,37,29.82,10.0,ESE,17.3,25.3,N/A,,Clear,120,2013-05-17 03:15:00
10:35 PM,75.4,50.7,42,29.83,10.0,SE,18.4,29.9,N/A,,Clear,130,2013-05-17 03:35:00
10:55 PM,73.8,51.3,45,29.84,10.0,SE,15.0,-,N/A,,Clear,130,2013-05-17 03:55:00
11:15 PM,72.5,51.8,48,29.85,10.0,SE,17.3,23.0,N/A,,Clear,130,2013-05-17 04:15:00
11:35 PM,70.9,52.0,51,29.86,10.0,SE,12.7,19.6,N/A,,Clear,130,2013-05-17 04:35:00
11:55 PM,69.6,52.0,53,29.86,10.0,SE,11.5,-,N/A,,Clear,130,2013-05-17 04:55:00